Content
SEND FEEDBACK

Daily
Averages
Monthly
Summary
Canada

SUDBURY, ONTARIO


Home > North America > Canada > Ontario
Elevation: 1140 feet     Latitude: 46 37N     Longitude: 080 48W

WEATHER
 
SELECT A DAY
Number of Records: 188,964;   Date Range: 1/1/95 - 12/25/14
 
SHARE

PRINT THIS DATA

[ ← Previous Day ]
WEATHER ALMANAC - JANUARY 21, 2013
[ Next Day → ]
[ °C ]   °F
Weather ElementAverageHighLow
Temperature-8.9 °F (12:08 pm)-18.4 °F (10:00 am)
Dewpoint-14.9 °F (12:08 pm)-25.6 °F (10:00 am)
Humidity67 %71 % (3:00 pm)49 % (1:00 am)
Wind Speed9.7 mph17.3 mph (7:00 pm)
Wind Gust19.6 mph (8:00 pm)
Weather ElementAverage
Visibility9.6 mi
Wind DirectionE (85.3 °)

Weather ElementTotal
Precipitation---
Heating Degree Days74.2 (Base 65)
Averaged from 34 records on January 21, 2013
WEATHER CONDITIONS BREAKOUT
WIND DIRECTION BREAKOUT
WEATHER BY HOUR - JANUARY 21, 2013
[ °C ]   °F
Local TimeTemperatureDewpointHumidityBarometerVisibilityWind DirectionWind SpeedGust SpeedPrecipitationEventsConditions
1:00 AM-13.0 °F-22.0 °F49 %30.10 in15.0 miNorth (350°)6.9 mph
1:00 AM-13.0 °F-22.0 °F64 %30.10 in15.0 miNorth (350°)5.8 mphClear
2:00 AM-14.8 °F-22.0 °F70 %30.11 in15.0 miSW (230°)4.6 mphClear
3:00 AM-14.8 °F-22.0 °F70 %30.10 in15.0 miNW (310°)3.5 mphClear
4:00 AM-16.6 °F-23.8 °F70 %30.08 in15.0 miNNE (20°)2.3 mphClear
5:00 AM-16.6 °F-23.8 °F70 %30.06 in15.0 miENE (60°)3.5 mphPartly Cloudy
6:00 AM-16.6 °F-23.8 °F70 %30.05 in15.0 miSE (130°)3.5 mphScattered Clouds
7:00 AM-17.0 °F-25.0 °F53 %30.06 in15.0 miESE (120°)6.9 mphScattered Clouds
7:00 AM-16.6 °F-23.8 °F70 %30.06 in15.0 miESE (120°)6.9 mphMostly Cloudy
8:00 AM-16.6 °F-23.8 °F70 %30.06 in15.0 miSE (130°)8.1 mphOvercast
9:00 AM-14.8 °F-22.0 °F70 %30.05 in15.0 miESE (110°)6.9 mphOvercast
10:00 AM-18.4 °F-25.6 °F70 %30.04 in15.0 miENE (60°)5.8 mphOvercast
11:00 AM-14.8 °F-22.0 °F70 %30.03 in15.0 miENE (60°)4.6 mphOvercast
12:00 PM-13.0 °F-20.2 °F70 %30.00 in20.0 miNNE (30°)6.9 mphOvercast
12:08 PM0.0 °F0.0 °F12.0 miNE (40°)9.2 mph
12:13 PM0.0 °F0.0 °F6.0 miNNE (30°)9.2 mph
12:42 PM0.0 °F0.0 °F3.0 miNE (40°)11.5 mph
1:00 PM-11.2 °F-18.4 °F70 %29.95 in3.0 miNNE (30°)11.5 mphSnowLight Snow
1:00 PM-11.0 °F-19.0 °F54 %29.95 in3.0 miNNE (30°)11.5 mphSnowLight Snow
2:00 PM-5.8 °F-14.8 °F65 %29.91 in6.0 miNE (40°)16.1 mphSnowLight Snow
3:00 PM-5.8 °F-13.0 °F71 %29.91 in8.0 miNNE (20°)11.5 mphSnowLight Snow
3:16 PM0.0 °F0.0 °F2.5 miNNE (30°)13.8 mph
4:00 PM-4.0 °F-11.2 °F71 %29.92 in2.0 miNNE (20°)9.2 mphSnowLight Snow
5:00 PM-4.0 °F-11.2 °F71 %29.93 in2.0 miNNE (20°)12.7 mphSnowLight Snow
6:00 PM-5.8 °F-13.0 °F71 %29.93 in2.0 miNNE (30°)16.1 mphSnowLight Snow
7:00 PM-5.8 °F-13.0 °F71 %29.93 in2.0 miNNE (30°)16.1 mphSnowLight Snow
7:00 PM-5.0 °F-12.0 °F56 %29.93 in2.0 miNNE (30°)17.3 mphSnowLight Snow
8:00 PM-5.8 °F-13.0 °F71 %29.94 in2.5 miNNE (20°)12.7 mph19.6 mphSnowLight Snow
9:00 PM-5.8 °F-13.0 °F71 %29.94 in2.0 miNorth (360°)10.4 mph19.6 mphSnowLight Snow
9:32 PM0.0 °F0.0 °F2.5 miNorth (10°)13.8 mph
9:47 PM0.0 °F0.0 °F10.0 miNorth (10°)12.7 mph
10:00 PM-7.6 °F-16.6 °F65 %29.96 in15.0 miNorth (10°)12.7 mphSnowLight Snow
11:00 PM-7.6 °F-16.6 °F65 %29.97 in15.0 miNorth (10°)12.7 mph18.4 mphSnowLight Snow
11:28 PM0.0 °F0.0 °F10.0 miNorth (10°)13.8 mph
Hourly data recorded from CYSB, located miles away from Sudbury, Ontario







STORIES FROM OUR PARTNERS